Tiempo cada hora Aranuel

Hoy, 19 Enero, Martes

Tiempo Temperatura Precipitaciones Viento Presión Humedad
00:00 +4°C° 0 mm 2 mps 714 mmHg 58%
01:00 +4°C° 0 mm 2 mps 714 mmHg 56%
02:00 +4°C° 0 mm 2 mps 713 mmHg 54%
03:00 +4°C° 0 mm 2 mps 713 mmHg 52%
04:00 +4°C° 0 mm 2 mps 713 mmHg 49%
05:00 +4°C° 0 mm 2 mps 712 mmHg 46%
06:00 +4°C° 0 mm 2 mps 712 mmHg 44%
07:00 +6°C° 0 mm 1 mps 712 mmHg 43%
08:00 +7°C° 0 mm 1 mps 713 mmHg 42%
09:00 +9°C° 0 mm 1 mps 713 mmHg 41%
10:00 +10°C° 0 mm 1 mps 713 mmHg 39%
11:00 +12°C° 0 mm 1 mps 713 mmHg 37%
12:00 +14°C° 0 mm 1 mps 713 mmHg 36%
13:00 +14°C° 0 mm 1 mps 712 mmHg 37%
14:00 +14°C° 0 mm 1 mps 711 mmHg 38%
15:00 +14°C° 0 mm 2 mps 711 mmHg 40%
16:00 +11°C° 0 mm 1 mps 710 mmHg 47%
17:00 +9°C° 0 mm 1 mps 710 mmHg 54%
18:00 +7°C° 0 mm 1 mps 710 mmHg 61%
19:00 +7°C° 0 mm 1 mps 709 mmHg 61%
20:00 +6°C° 0 mm 1 mps 709 mmHg 61%
21:00 +5°C° 0 mm 2 mps 709 mmHg 61%
22:00 +5°C° 0 mm 2 mps 709 mmHg 61%
23:00 +5°C° 0 mm 2 mps 709 mmHg 61%

Mañana, 20 Enero, Miércoles

Tiempo Temperatura Precipitaciones Viento Presión Humedad
00:00 +6°C° 0 mm 1 mps 708 mmHg 61%
01:00 +5°C° 0 mm 2 mps 708 mmHg 62%
02:00 +5°C° 0 mm 2 mps 707 mmHg 62%
03:00 +5°C° 0 mm 2 mps 707 mmHg 62%
04:00 +5°C° 0 mm 2 mps 706 mmHg 61%
05:00 +5°C° 0 mm 2 mps 706 mmHg 59%
06:00 +5°C° 0 mm 2 mps 706 mmHg 58%
07:00 +6°C° 0 mm 2 mps 706 mmHg 58%
08:00 +6°C° 0 mm 2 mps 706 mmHg 58%
09:00 +7°C° 0 mm 2 mps 706 mmHg 59%
10:00 +8°C° 0 mm 3 mps 706 mmHg 60%
11:00 +8°C° 0 mm 4 mps 705 mmHg 62%
12:00 +8°C° 0 mm 5 mps 705 mmHg 63%
13:00 +8°C° 0 mm 5 mps 704 mmHg 67%
14:00 +8°C° 0 mm 5 mps 703 mmHg 70%
15:00 +8°C° 0 mm 5 mps 703 mmHg 74%
16:00 +7°C° 0 mm 4 mps 702 mmHg 78%
17:00 +7°C° 0 mm 3 mps 702 mmHg 82%
18:00 +7°C° 0 mm 3 mps 702 mmHg 86%
19:00 +7°C° 0.1 mm 3 mps 702 mmHg 87%
20:00 +7°C° 0.1 mm 3 mps 702 mmHg 88%
21:00 +7°C° 0.1 mm 3 mps 702 mmHg 89%
22:00 +6°C° 0 mm 4 mps 702 mmHg 89%
23:00 +6°C° 0 mm 5 mps 703 mmHg 88%

Pasado mañana, 21 Enero, Jueves

Tiempo Temperatura Precipitaciones Viento Presión Humedad
00:00 +6°C° 0 mm 5 mps 703 mmHg 88%
01:00 +6°C° 0 mm 5 mps 703 mmHg 87%
02:00 +5°C° 0 mm 6 mps 703 mmHg 86%
03:00 +5°C° 0 mm 6 mps 703 mmHg 85%
04:00 +5°C° 0 mm 6 mps 703 mmHg 86%
05:00 +5°C° 0 mm 6 mps 703 mmHg 86%
06:00 +5°C° 0 mm 6 mps 703 mmHg 86%
07:00 +5°C° 0 mm 6 mps 704 mmHg 83%
08:00 +7°C° 0 mm 6 mps 704 mmHg 81%
09:00 +8°C° 0 mm 7 mps 705 mmHg 78%
10:00 +9°C° 0 mm 8 mps 705 mmHg 74%
11:00 +10°C° 0 mm 9 mps 705 mmHg 70%
12:00 +11°C° 0 mm 10 mps 705 mmHg 66%
13:00 +10°C° 0 mm 9 mps 704 mmHg 67%
14:00 +10°C° 0 mm 9 mps 704 mmHg 68%
15:00 +10°C° 0 mm 9 mps 703 mmHg 70%
16:00 +9°C° 0 mm 8 mps 703 mmHg 73%
17:00 +9°C° 0 mm 8 mps 703 mmHg 76%
18:00 +7°C° 0 mm 8 mps 702 mmHg 80%
19:00 +8°C° 0 mm 9 mps 702 mmHg 80%
20:00 +8°C° 0 mm 9 mps 702 mmHg 80%
21:00 +8°C° 0 mm 10 mps 702 mmHg 80%
22:00 +7°C° 0 mm 10 mps 703 mmHg 78%
23:00 +7°C° 0 mm 10 mps 703 mmHg 77%

22 Enero, Viernes

Tiempo Temperatura Precipitaciones Viento Presión Humedad
00:00 +7°C° 0 mm 9 mps 703 mmHg 75%
01:00 +6°C° 0 mm 8 mps 703 mmHg 75%
02:00 +5°C° 0 mm 7 mps 702 mmHg 75%
03:00 +5°C° 0 mm 6 mps 702 mmHg 75%
04:00 +5°C° 0 mm 6 mps 702 mmHg 76%
05:00 +6°C° 0 mm 5 mps 702 mmHg 77%
06:00 +6°C° 0 mm 5 mps 702 mmHg 78%
07:00 +6°C° 0.1 mm 5 mps 702 mmHg 79%
08:00 +7°C° 0.1 mm 5 mps 701 mmHg 80%
09:00 +8°C° 0.1 mm 5 mps 701 mmHg 81%
10:00 +8°C° 1.8 mm 7 mps 701 mmHg 77%
11:00 +6°C° 1.8 mm 8 mps 700 mmHg 74%
12:00 +6°C° 1.8 mm 9 mps 700 mmHg 70%
13:00 +7°C° 0 mm 10 mps 700 mmHg 66%
14:00 +7°C° 0 mm 12 mps 700 mmHg 63%
15:00 +7°C° 0 mm 13 mps 699 mmHg 59%
16:00 +5°C° 0 mm 12 mps 700 mmHg 62%
17:00 +4°C° 0 mm 11 mps 701 mmHg 64%
18:00 +3°C° 0 mm 9 mps 701 mmHg 67%
19:00 +3°C° 0 mm 9 mps 702 mmHg 69%
20:00 +2°C° 0 mm 8 mps 703 mmHg 70%
21:00 +3°C° 0 mm 7 mps 703 mmHg 72%
22:00 +3°C° 0 mm 7 mps 704 mmHg 72%
23:00 +2°C° 0 mm 6 mps 704 mmHg 73%

23 Enero, Sábado

Tiempo Temperatura Precipitaciones Viento Presión Humedad
00:00 +2°C° 0 mm 6 mps 704 mmHg 73%
01:00 +2°C° 0 mm 5 mps 704 mmHg 74%
02:00 +2°C° 0 mm 5 mps 705 mmHg 75%
03:00 +1°C° 0 mm 4 mps 705 mmHg 76%
04:00 +2°C° 0 mm 5 mps 705 mmHg 76%
05:00 +2°C° 0 mm 5 mps 705 mmHg 76%
06:00 +2°C° 0 mm 5 mps 705 mmHg 77%
07:00 +3°C° 0 mm 5 mps 705 mmHg 73%
08:00 +4°C° 0 mm 6 mps 705 mmHg 70%
09:00 +4°C° 0 mm 6 mps 705 mmHg 67%
10:00 +6°C° 0 mm 8 mps 705 mmHg 65%
11:00 +7°C° 0 mm 9 mps 705 mmHg 62%
12:00 +8°C° 0 mm 11 mps 705 mmHg 60%
13:00 +8°C° 0 mm 11 mps 705 mmHg 60%
14:00 +9°C° 0 mm 11 mps 704 mmHg 60%
15:00 +9°C° 0 mm 10 mps 703 mmHg 60%
16:00 +9°C° 0 mm 11 mps 703 mmHg 64%
17:00 +8°C° 0 mm 11 mps 703 mmHg 68%
18:00 +7°C° 0 mm 11 mps 703 mmHg 72%
19:00 +8°C° 0 mm 12 mps 703 mmHg 74%
20:00 +8°C° 0 mm 12 mps 703 mmHg 75%
21:00 +8°C° 0 mm 12 mps 703 mmHg 76%
22:00 +8°C° 0 mm 11 mps 702 mmHg 76%
23:00 +8°C° 0 mm 11 mps 702 mmHg 76%

24 Enero, Domingo

Tiempo Temperatura Precipitaciones Viento Presión Humedad
00:00 +8°C° 0 mm 10 mps 702 mmHg 76%
01:00 +9°C° 0 mm 10 mps 702 mmHg 77%
02:00 +9°C° 0 mm 10 mps 702 mmHg 77%
03:00 +10°C° 0 mm 9 mps 702 mmHg 78%
04:00 +10°C° 0 mm 9 mps 702 mmHg 78%
05:00 +10°C° 0 mm 9 mps 702 mmHg 78%
06:00 +10°C° 0 mm 8 mps 702 mmHg 78%
07:00 +10°C° 0 mm 8 mps 703 mmHg 73%
08:00 +10°C° 0 mm 8 mps 703 mmHg 69%
09:00 +10°C° 0 mm 7 mps 704 mmHg 64%
10:00 +11°C° 0 mm 8 mps 704 mmHg 58%
11:00 +12°C° 0 mm 8 mps 704 mmHg 51%
12:00 +13°C° 0 mm 8 mps 705 mmHg 44%
13:00 +13°C° 0 mm 8 mps 705 mmHg 46%
14:00 +13°C° 0 mm 8 mps 704 mmHg 47%
15:00 +14°C° 0 mm 7 mps 704 mmHg 48%
16:00 +11°C° 0 mm 6 mps 704 mmHg 54%
17:00 +9°C° 0 mm 5 mps 705 mmHg 61%
18:00 +9°C° 0 mm 3 mps 705 mmHg 67%
19:00 +8°C° 0 mm 3 mps 705 mmHg 69%
20:00 +8°C° 0 mm 3 mps 706 mmHg 72%
21:00 +7°C° 0 mm 3 mps 706 mmHg 74%
22:00 +7°C° 0 mm 3 mps 706 mmHg 75%
23:00 +7°C° 0 mm 3 mps 707 mmHg 75%
Mostrar más

Necesitamos Su Consentimiento

Meteoprog y nuestros Proveedores de Servicios pueden almacenar y acceder a sus datos personales como cookies, identificadores de dispositivo u otras tecnologías similares de su dispositivo y procesar dichos datos para personalizar contenido y anuncios, además de ofrecer funciones de redes sociales y analizar el tráfico.

  • Almacenar y/o acceder a información en su dispositivo

    Se puede almacenar o acceder a cookies, identificadores de dispositivo u otra información de su dispositivo para los fines anteriormente indicados.

  • Anuncios y contenido personalizados, medición de anuncios y contenido, percepciones del público, y desarrollo de productos

    Los anuncios y el contenido pueden personalizarse en base a su perfil. Se pueden añadir más datos para personalizar mejor los anuncios y contenidos. Se puede medir el rendimiento de los anuncios y contenidos. Se puede obtener la percepción sobre el público que ha visto los anuncios y contenidos. Dichos datos pueden usarse para desarrollar o mejorar la experiencia del usuario, sistemas y software.

Al hacer clic en ‘Estoy De Acuerdo’ usted permitirá el uso de las cookies, identificadores de dispositivo, balizas web u otras tecnologías similares indicadas. Su configuración puede cambiarse desde el navegador de su dispositivo.

Para ciertos fines, los intereses legítimos pueden ser considerados por encima del consentimiento. Puede leer más sobre ello en nuestra Política de Privacidad y Cookies.